Volver al catálogo

DELTA 1 DEB

ActivoPO
NORAD 1313·DEBRIS·🇺🇸 United States

Lanzado Jan 22, 1965 desde Cape Canaveral Space Force Station

Loading…

Próximos Pases (próximas 24 horas)

TLE

ActualizadoSource: Space-Track

Época: Sep 14, 2026, 11:49 UTC

1 01313U 65004D   26257.49285928  .00000038  00000-0  66903-4 0  9991
2 01313  96.4230 156.1496 1174138 136.7057 233.2579 12.00868002697167

Sigue DELTA 1 DEB en tiempo real con AllMySat

Download on the App Store